Change the Weather History Date:

Tuesday, October 9, 2012

  Actual Average (KMRF) Record (KMRF)
Temperature  
Mean Temperature 72 °F -  
Max Temperature 85 °F 74 °F 86 °F (2014)
Min Temperature 58 °F 45 °F 32 °F (2000)
Cooling Degree Days 6    
Growing Degree Days 22 (Base 50)    
Moisture  
Dew Point 45 °F    
Average Humidity 42    
Maximum Humidity 67    
Minimum Humidity 19    
Precipitation  
Precipitation 0.00 in - - ()
Sea Level Pressure  
Sea Level Pressure 30.14 in    
Wind  
Wind Speed 8 mph (SSW)    
Max Wind Speed 15 mph    
Max Gust Speed -    
Visibility 10 miles    
Events      
Averages and records for this station are not official NWS values.
T = Trace of Precipitation, MM = Missing Value Source: NWS Daily Summary

Daily Weather History Graph

Daily Weather History Graph

Search for Another Location

Airport or City:

Trip Planner

Search our weather history database for the weather conditions in past years. The results will help you decide how hot, cold, wet, or windy it might be!

Date:

Astronomy

Oct. 09, 2012 Rise Set
Actual Time 7:53 AM CDT 7:29 PM CDT
Civil Twilight 7:29 AM CDT 7:53 PM CDT
Nautical Twilight 7:01 AM CDT 8:21 PM CDT
Astronomical Twilight 6:33 AM CDT 8:49 PM CDT
Moon 1:56 AM CDT (10/9) 3:36 PM CDT (10/9)
Length of Visible Light 12h 24m
Length of Day
11h 36m
Last Quarter, 36% of the Moon is Illuminated
Oct 9
Last Quarter
Oct 15
New
Oct 21
First Quarter
Oct 29
Full
Nov 6
Last Quarter

Hourly Weather History & Observations

Time (CDT) Temp. Dew Point Humidity Pressure Visibility Wind Dir Wind Speed Gust Speed Precip Events Conditions
12:15 AM 60.3 °F 47.5 °F 63% 30.15 in 10.0 mi SSW 8.1 mph - N/A   Clear
12:35 AM 59.4 °F 47.5 °F 65% 30.14 in 10.0 mi SSW 8.1 mph - N/A   Clear
12:55 AM 58.6 °F 47.8 °F 67% 30.14 in 10.0 mi SW 8.1 mph - N/A   Clear
1:15 AM 61.9 °F 47.5 °F 59% 30.13 in 10.0 mi Calm Calm - N/A   Clear
1:55 AM 64.2 °F 47.3 °F 54% 30.13 in 10.0 mi SW 9.2 mph - N/A   Clear
2:15 AM 65.1 °F 47.3 °F 52% 30.13 in 10.0 mi SSW 6.9 mph - N/A   Clear
2:55 AM 62.1 °F 47.5 °F 59% 30.13 in 10.0 mi SW 8.1 mph - N/A   Clear
3:15 AM 63.5 °F 47.5 °F 56% 30.13 in 10.0 mi SW 10.4 mph - N/A   Clear
3:35 AM 65.1 °F 47.3 °F 52% 30.12 in 10.0 mi SW 11.5 mph - N/A   Clear
3:55 AM 64.9 °F 47.3 °F 53% 30.12 in 10.0 mi SSW 11.5 mph - N/A   Clear
4:15 AM 64.6 °F 47.1 °F 53% 30.12 in 10.0 mi South 9.2 mph - N/A   Clear
4:35 AM 63.1 °F 47.3 °F 56% 30.12 in 10.0 mi South 6.9 mph - N/A   Clear
4:55 AM 61.9 °F 47.3 °F 59% 30.12 in 10.0 mi South 6.9 mph - N/A   Clear
5:15 AM 62.6 °F 47.3 °F 57% 30.12 in 10.0 mi SW 15.0 mph - N/A   Clear
5:35 AM 64.6 °F 47.3 °F 53% 30.12 in 10.0 mi SW 12.7 mph - N/A   Clear
5:55 AM 63.5 °F 47.3 °F 56% 30.13 in 10.0 mi SW 11.5 mph - N/A   Clear
6:15 AM 63.3 °F 47.3 °F 56% 30.13 in 10.0 mi SW 12.7 mph - N/A   Clear
6:35 AM 63.3 °F 47.3 °F 56% 30.14 in 10.0 mi SW 9.2 mph - N/A   Clear
6:55 AM 62.1 °F 47.5 °F 59% 30.15 in 10.0 mi SSW 11.5 mph - N/A   Clear
7:15 AM 61.5 °F 47.7 °F 60% 30.15 in 10.0 mi South 6.9 mph - N/A   Clear
7:35 AM 59.5 °F 47.8 °F 65% 30.15 in 10.0 mi SW 3.5 mph - N/A   Clear
7:55 AM 59.0 °F 47.8 °F 66% 30.16 in 10.0 mi Calm Calm - N/A   Clear
8:15 AM 61.5 °F 47.8 °F 61% 30.16 in 10.0 mi SSW 5.8 mph - N/A   Clear
8:35 AM 60.1 °F 48.4 °F 65% 30.16 in 10.0 mi SSW 4.6 mph - N/A   Clear
8:55 AM 61.5 °F 49.3 °F 64% 30.17 in 10.0 mi South 5.8 mph - N/A   Clear
9:15 AM 63.7 °F 49.6 °F 60% 30.17 in 10.0 mi SSW 5.8 mph - N/A   Clear
9:35 AM 65.5 °F 50.0 °F 57% 30.18 in 10.0 mi SSW 5.8 mph - N/A   Clear
9:55 AM 69.3 °F 49.3 °F 49% 30.19 in 10.0 mi South 10.4 mph - N/A   Clear
10:15 AM 71.8 °F 49.1 °F 45% 30.19 in 10.0 mi SSW 10.4 mph - N/A   Clear
10:35 AM 72.9 °F 49.3 °F 43% 30.20 in 10.0 mi South 10.4 mph - N/A   Clear
10:55 AM 73.9 °F 48.9 °F 41% 30.20 in 10.0 mi SSW 8.1 mph - N/A   Clear
11:15 AM 73.9 °F 48.0 °F 40% 30.20 in 10.0 mi SSW 8.1 mph - N/A   Clear
11:35 AM 74.7 °F 47.1 °F 38% 30.20 in 10.0 mi SW 5.8 mph - N/A   Clear
11:55 AM 76.8 °F 44.8 °F 32% 30.19 in 10.0 mi SW 6.9 mph - N/A   Clear
12:15 PM 77.9 °F 41.0 °F 27% 30.19 in 10.0 mi Calm Calm - N/A   Clear
12:35 PM 79.3 °F 39.7 °F 24% 30.19 in 10.0 mi WSW 8.1 mph - N/A   Clear
12:55 PM 79.9 °F 38.5 °F 23% 30.17 in 10.0 mi West 5.8 mph - N/A   Clear
1:15 PM 81.9 °F 37.6 °F 21% 30.17 in 10.0 mi WSW 9.2 mph - N/A   Clear
1:35 PM 82.8 °F 38.1 °F 20% 30.16 in 10.0 mi WSW 9.2 mph - N/A   Clear
1:55 PM 82.9 °F 40.1 °F 22% 30.16 in 10.0 mi SW 9.2 mph - N/A   Clear
2:15 PM 83.1 °F 40.1 °F 22% 30.15 in 10.0 mi SW 6.9 mph - N/A   Clear
2:35 PM 83.5 °F 40.6 °F 22% 30.13 in 10.0 mi South 6.9 mph - N/A   Clear
2:55 PM 83.3 °F 40.1 °F 22% 30.13 in 10.0 mi SW 9.2 mph - N/A   Clear
3:15 PM 84.0 °F 39.9 °F 21% 30.12 in 10.0 mi SSW 9.2 mph - N/A   Clear
3:35 PM 84.4 °F 38.7 °F 20% 30.12 in 10.0 mi West 6.9 mph - N/A   Clear
3:55 PM 84.2 °F 37.9 °F 19% 30.11 in 10.0 mi WSW 10.4 mph - N/A   Clear
4:15 PM 84.7 °F 38.7 °F 19% 30.11 in 10.0 mi South 9.2 mph - N/A   Clear
4:35 PM 84.6 °F 38.3 °F 19% 30.11 in 10.0 mi West 9.2 mph - N/A   Clear
4:55 PM 84.7 °F 38.1 °F 19% 30.10 in 10.0 mi WSW 9.2 mph - N/A   Clear
5:15 PM 85.1 °F 39.2 °F 20% 30.10 in 10.0 mi SW 6.9 mph - N/A   Clear
5:35 PM 84.7 °F 39.0 °F 20% 30.09 in 10.0 mi South 4.6 mph - N/A   Clear
5:55 PM 84.6 °F 38.3 °F 19% 30.09 in 10.0 mi WSW 12.7 mph - N/A   Clear
6:15 PM 84.2 °F 38.5 °F 20% 30.09 in 10.0 mi SW 5.8 mph - N/A   Clear
6:35 PM 83.3 °F 39.2 °F 21% 30.09 in 10.0 mi SW 4.6 mph - N/A   Clear
6:55 PM 81.5 °F 41.0 °F 24% 30.09 in 10.0 mi WSW 3.5 mph - N/A   Clear
7:15 PM 77.9 °F 42.8 °F 29% 30.10 in 10.0 mi SW 4.6 mph - N/A   Clear
7:35 PM 72.9 °F 43.7 °F 35% 30.11 in 10.0 mi SSW 8.1 mph - N/A   Clear
7:55 PM 70.7 °F 44.2 °F 39% 30.11 in 10.0 mi South 6.9 mph - N/A   Clear
8:15 PM 71.4 °F 45.1 °F 39% 30.12 in 10.0 mi SSE 4.6 mph - N/A   Clear
8:35 PM 71.6 °F 45.5 °F 39% 30.13 in 10.0 mi SW 4.6 mph - N/A   Clear
8:55 PM 72.9 °F 45.1 °F 37% 30.13 in 10.0 mi SSW 3.5 mph - N/A   Clear
9:15 PM 69.8 °F 45.9 °F 42% 30.14 in 10.0 mi South 6.9 mph - N/A   Clear
9:35 PM 68.5 °F 46.0 °F 44% 30.15 in 10.0 mi SSW 8.1 mph - N/A   Clear
9:55 PM 65.5 °F 46.8 °F 51% 30.15 in 10.0 mi SW 10.4 mph - N/A   Clear
10:15 PM 63.3 °F 46.9 °F 55% 30.16 in 10.0 mi SSW 8.1 mph - N/A   Clear
10:35 PM 64.8 °F 46.2 °F 51% 30.16 in 10.0 mi SSW 8.1 mph - N/A   Clear
10:55 PM 65.5 °F 45.5 °F 48% 30.16 in 10.0 mi South 9.2 mph - N/A   Clear
11:15 PM 65.7 °F 45.1 °F 47% 30.16 in 10.0 mi SSW 9.2 mph - N/A   Clear
11:35 PM 65.5 °F 45.1 °F 48% 30.16 in 10.0 mi SSW 9.2 mph - N/A   Clear
11:55 PM 62.6 °F 45.5 °F 54% 30.15 in 10.0 mi South 8.1 mph - N/A   Clear